Location: Unspecified
(45.3999°N, 88.1269°W)
Time: 03:58:45
(UTC-05:00)

Okean 3 - Visible Passes

Search period start: 26 September 2018 00:00
Search period end: 06 October 2018 00:00
Orbit: 576 x 603 km, 82.5° (Epoch: 24 September)

Date Brightness Start Highest point End Pass type
(mag) Time Alt. Az. Time Alt. Az. Time Alt. Az.
26 Sep 4.6 04:13:06 35° SE 04:14:03 41° E 04:18:01 10° NNE visible
26 Sep 4.9 05:49:41 14° W 05:51:29 18° WNW 05:54:28 10° NNW visible
27 Sep 3.8 04:21:50 61° ESE 04:22:02 62° E 04:26:12 10° NNE visible
27 Sep 5.3 05:58:25 12° W 05:59:43 13° WNW 06:01:42 10° NW visible
28 Sep 3.5 04:30:30 71° N 04:30:30 71° N 04:34:16 10° N visible
29 Sep 6.6 03:02:31 12° ENE 03:02:31 12° ENE 03:03:15 10° ENE visible
29 Sep 4.0 04:39:06 45° NNW 04:39:06 45° NNW 04:42:16 10° N visible
30 Sep 6.4 03:11:04 14° NE 03:11:04 14° NE 03:12:10 10° NE visible
30 Sep 4.6 04:47:38 29° NNW 04:47:38 29° NNW 04:50:09 10° N visible
01 Oct 6.2 03:19:33 16° NE 03:19:33 16° NE 03:20:40 10° NNE visible
01 Oct 5.1 04:56:07 20° NW 04:56:07 20° NW 04:57:56 10° NNW visible
02 Oct 6.2 03:27:59 16° NNE 03:27:59 16° NNE 03:28:59 10° NNE visible
02 Oct 5.5 05:04:33 14° NW 05:04:33 14° NW 05:05:33 10° NNW visible
03 Oct 6.1 03:36:23 15° NNE 03:36:23 15° NNE 03:37:11 10° NNE visible
04 Oct 6.2 03:44:45 13° N 03:44:45 13° N 03:45:16 10° N visible
05 Oct 6.3 03:53:05 11° N 03:53:05 11° N 03:53:17 10° N visible
